This demonstration page uses our WeatherBlox Daily Observations layout. Learn more.

Left ArrowRight Arrow

34.02893, -84.19858

Hourly Observations for November 22, 2016

Temp ( °F °C ) Dew Point ( °F °C ) Humidity (%) Winds ( mph kmh ) Pressure ( in mb ) Visibility ( mi km ) Precip ( " mm )
12:53 am 00:53 Clear 39 3.9 13 -10.6 34 34 Calm 30.19 1023 10 16 0.00 0.00
1:53 am 01:53 Clear 38 3.3 14 -10 37 37 Calm 30.18 1022 10 16 0.00 0.00
2:53 am 02:53 Clear 34 1.1 15 -9.4 46 46 Calm 30.21 1023 10 16 0.00 0.00
3:53 am 03:53 Clear 33 0.6 17 -8.3 52 52 Calm 30.21 1023 10 16 0.00 0.00
4:53 am 04:53 Clear 31 -0.6 19 -7.2 61 61 Calm 30.23 1024 10 16 0.00 0.00
5:53 am 05:53 Clear 30 -1.1 20 -6.7 66 66 Calm 30.24 1024 10 16 0.00 0.00
6:53 am 06:53 Clear 30 -1.1 20 -6.7 66 66 Calm 30.26 1025 10 16 0.00 0.00
7:53 am 07:53 Sunny 31 -0.6 22 -5.6 69 69 Calm 30.29 1026 10 16 0.00 0.00
8:53 am 08:53 Sunny 44 6.7 21 -6.1 40 40 Calm 30.30 1026 10 16 0.00 0.00
9:53 am 09:53 Sunny 51 10.6 16 -8.9 25 25 VRB 5 7 30.30 1026 10 16 0.00 0.00
10:53 am 10:53 Sunny 55 12.8 14 -10 20 20 VRB 3 6 30.31 1026 10 16 0.00 0.00
11:53 am 11:53 Sunny 58 14.4 14 -10 18 18 S 7 11 30.28 1025 10 16 0.00 0.00
12:53 pm 12:53 Sunny 60 15.6 14 -10 16 16 VRB 5 7 30.26 1025 10 16 0.00 0.00
1:53 pm 13:53 Sunny 62 16.7 14 -10 15 15 VRB 5 7 30.24 1024 10 16 0.00 0.00
2:53 pm 14:53 Sunny 62 16.7 15 -9.4 16 16 SE 3 6 30.23 1024 10 16 0.00 0.00
3:53 pm 15:53 Sunny 63 17.2 14 -10 15 15 Calm 30.24 1024 10 16 0.00 0.00
4:53 pm 16:53 Sunny 60 15.6 18 -7.8 19 19 Calm 30.24 1024 10 16 0.00 0.00
5:53 pm 17:53 Clear 54 12.2 22 -5.6 29 29 Calm 30.25 1025 10 16 0.00 0.00
6:53 pm 18:53 Clear 48 8.9 23 -5 37 37 Calm 30.28 1025 10 16 0.00 0.00
7:53 pm 19:53 Clear 43 6.1 24 -4.4 47 47 Calm 30.29 1026 10 16 0.00 0.00
8:53 pm 20:53 Clear 46 7.8 25 -3.9 44 44 Calm 30.28 1026 10 16 0.00 0.00
9:53 pm 21:53 Clear 43 6.1 24 -4.4 47 47 Calm 30.28 1025 10 16 0.00 0.00
10:53 pm 22:53 Clear 41 5 24 -4.4 51 51 NE 3 6 30.28 1025 10 16 0.00 0.00
11:53 pm 23:53 Clear 44 6.7 24 -4.4 45 45 Calm 30.27 1025 10 16 0.00 0.00

Powered by AerisWeather